Regional Weather Roundup
Issued by NWS

Home | Current Version | Previous Version | Graphics & Text | Print | Product List | Glossary On
Versions: 1 2 3 4 5 6 7 8 9 10 11 12 13 14 15 16 17 18 19 20 21 22 23 24 25 26 27 28 29 30 31 32 33 34 35 36 37 38 39 40 41 42 43 44 45 46 47 48 49 50
000
ASUS45 KSLC 231210
RWRUT

UTAH REGIONAL WEATHER ROUNDUP
NATIONAL WEATHER SERVICE SALT LAKE CITY UT
600 AM MDT SAT AUG 23 2014

UTZ001>011-023>025-231300-

NORTHERN UTAH

CITY           SKY/WX    TMP DP  RH WIND       PRES   REMARKS
HILL AFB       CLOUDY    57  50  77 W7        30.01S
LOGAN          MOCLDY    51  51 100 CALM      30.01F
OGDEN          CLOUDY    54  50  86 NW8       30.00S
PROVO AIRPORT  CLOUDY    52  48  87 NE5       30.13R
SALT LAKE CITY TSTM      55  52  89 SE24G30   29.99F
VERNAL         CLOUDY    52  49  89 CALM      30.06R
WENDOVER       CLEAR     54  43  66 CALM      30.02R
HEBER CITY     RAIN      50  45  81 NE6       30.11R
WEST JORDAN    CLOUDY    55  54  94 E16G29    30.04F

$$

UTZ012>022-026-027-231300-

SOUTHERN UTAH

CITY           SKY/WX    TMP DP  RH WIND       PRES   REMARKS
BRYCE CANYON   PTCLDY    47  45  93 NW3       30.18F
CEDAR CITY     CLEAR     54  49  83 CALM      30.06S
MILFORD        PTCLDY    56  52  86 W7        30.02F
MOAB/CYNLANDS  LGT RAIN  61  54  77 NE9       30.00R
PRICE          CLOUDY    56  49  77 SE6       30.05F
ST GEORGE      CLOUDY    72  52  49 SE7       29.95R
KANAB          MOCLDY    61  50  67 S5        30.10S

$$

REGIONAL REPORTS     COLORADO/ARIZONA

CITY           SKY/WX    TMP DP  RH WIND       PRES   REMARKS
CRAIG, CO      LGT RAIN  48  45  89 SE10      30.12F
GRAND JUNCTION LGT RAIN  56  55  97 CALM      30.04S FOG
RIFLE          RAIN      53  51  93 N6        30.11R FOG
MONTROSE       CLOUDY    58  50  75 N6        30.10R
CORTEZ         CLEAR     52  50  93 E3        30.13S
PAGE, AZ       CLOUDY    69  49  48 S3        30.01R
GRAND CANYON     N/A    N/A N/A N/A MISG        N/A
KINGMAN        CLEAR     65  53  65 SE13      30.00R
FLAGSTAFF      PTCLDY    48  45  89 CALM      30.23S

$$

REGIONAL REPORTS    NEVADA/IDAHO/WYOMING

CITY           SKY/WX    TMP DP  RH WIND       PRES   REMARKS
LAS VEGAS, NV  CLEAR     79  47  32 S14       29.81S
ELY            CLEAR     49  48  97 CALM      30.11R
ELKO           CLEAR     45  35  68 CALM      30.07R
POCATELLO, ID  PTCLDY    49  48  97 S6        30.04R
BURLEY         CLEAR     45  43  93 CALM      30.03R
EVANSTON, WY   CLOUDY    45  43  93 W8        30.10R
ROCK SPRINGS   MOCLDY    45  44  97 CALM      30.08F

$$


USA.gov is the U.S. government's official web portal to all federal, state and local government web resources and services.